W5QLD Weather Reports


time (UTC)temp
F
wind
direction
speed
knots
gust
knots
rain 1hr
in
rain 24hr
in
rain mn
in
humidity
%
barometer
mb
20260507025019 0 0.0 3.5 0.00 0.00 0.00
20260507024020 0 0.0 2.6 0.00 0.00 0.00
20260507023016 0 45 0.9 5.2 0.00 0.00 0.00
20260507022121 0 0 0.9 4.3 0.00 0.00 0.00
20260507021021 0 45 1.7 7.8 0.00 0.00 0.00
20260507020101 0 0 1.7 7.0 0.00 0.00 0.00
20260507015040 0 45 1.7 5.2 0.00 0.00 0.00
20260507014019 0 45 0.9 5.2 0.00 0.00 0.00
20260507013019 0 45 0.9 5.2 0.00 0.00 0.00
20260507012019 0 0.0 1.7 0.00 0.00 0.00
20260507011021 0 45 0.9 4.3 0.00 0.00 0.00
20260507010019 0 0.0 1.7 0.00 0.00 0.00
20260507005019 0 0.0 4.3 0.00 0.00 0.00
20260507004040 0 45 1.7 7.0 0.00 0.00 0.00
20260507003019 0 45 0.9 3.5 0.00 0.00 0.00
20260507002019 0 45 2.6 5.2 0.00 0.00 0.00
20260507001019 0 45 1.7 5.2 0.00 0.00 0.00
20260507000019 0 45 2.6 7.8 0.00 0.00 0.00
20260506235019 0 45 2.6 7.8 0.00 0.00 0.00
20260506234019 0 45 1.7 8.7 0.00 0.00 0.00
20260506233019 0 45 3.5 6.1 0.00 0.00 0.00
20260506232019 0 45 3.5 7.8 0.00 0.00 0.00
20260506231019 0 45 3.5 7.8 0.00 0.00 0.00
20260506230039 0 45 4.3 8.7 0.00 0.00 0.00
20260506225019 0 45 3.5 5.2 0.00 0.00 0.00
20260506224019 0 45 3.5 6.1 0.00 0.00 0.00
20260506223019 0 45 4.3 9.6 0.00 0.00 0.00
20260506222019 0 45 2.6 5.2 0.00 0.00 0.00
20260506221039 0 45 4.3 8.7 0.00 0.00 0.00
20260506220016 0 45 3.5 8.7 0.00 0.00 0.00
20260506215020 0 45 3.5 6.1 0.00 0.00 0.00
20260506214020 0 45 2.6 5.2 0.00 0.00 0.00
20260506213020 0 45 1.7 7.8 0.00 0.00 0.00
20260506212020 0 45 2.6 8.7 0.00 0.00 0.00
20260506211019 0 45 4.3 11.3 0.00 0.00 0.00
20260506210019 0 45 2.6 7.8 0.00 0.00 0.00
20260506205019 0 45 1.7 6.1 0.00 0.00 0.00
20260506204059 0 45 1.7 7.8 0.00 0.00 0.00
20260506203019 0 45 1.7 7.8 0.00 0.00 0.00
20260506202041 0 45 1.7 7.0 0.00 0.00 0.00
20260506201019 0 45 1.7 10.4 0.00 0.00 0.00
20260506200019 0 45 1.7 7.8 0.00 0.00 0.00
20260506195019 0 45 1.7 6.1 0.00 0.00 0.00
20260506194020 0 45 2.6 8.7 0.00 0.00 0.00
20260506193019 0 45 4.3 9.6 0.00 0.00 0.00
20260506192020 0 45 1.7 9.6 0.00 0.00 0.00
20260506191019 0 45 0.9 6.1 0.00 0.00 0.00
20260506190019 0 45 1.7 7.8 0.00 0.00 0.00
20260506185019 0 0.0 5.2 0.00 0.00 0.00
20260506184019 0 45 0.9 4.3 0.00 0.00 0.00
20260506183019 0 45 0.9 9.6 0.00 0.00 0.00
20260506182019 0 45 1.7 7.8 0.00 0.00 0.00
20260506181100 0 45 1.7 9.6 0.00 0.00 0.00
20260506180019 0 45 0.9 7.8 0.00 0.00 0.00
20260506175040 0 45 3.5 7.8 0.00 0.00 0.00
20260506174019 0 0.0 0.0 0.00 0.00 0.00
20260506173019 0 0.0 3.5 0.00 0.00 0.00
20260506172020 0 0.0 0.0 0.00 0.00 0.00
20260506171019 0 0.0 0.0 0.00 0.00 0.00
20260506170018 0 0.0 0.0 0.00 0.00 0.00
20260506165040 0 0.0 0.0 0.00 0.00 0.00
20260506164019 0 0.0 0.0 0.00 0.00 0.00
20260506163019 0 0.0 0.0 0.00 0.00 0.00
20260506162059 0 0.0 0.0 0.00 0.00 0.00
20260506161019 0 0.0 0.0 0.00 0.00 0.00
20260506160019 0 0.0 0.9 0.00 0.00 0.00
20260506155019 0 0.0 0.0 0.00 0.00 0.00
20260506154019 0 0.0 0.0 0.00 0.00 0.00
20260506153019 0 0.0 0.0 0.00 0.00 0.00
20260506152019 0 0.0 0.0 0.00 0.00 0.00
20260506151019 0 0.0 0.0 0.00 0.00 0.00
20260506150019 0 0.0 0.0 0.00 0.00 0.00
20260506145019 0 0.0 0.9 0.00 0.00 0.00
20260506144019 0 0.0 1.7 0.00 0.00 0.00
20260506143020 0 45 0.9 8.7 0.00 0.00 0.00
20260506142019 0 0.0 0.0 0.00 0.00 0.00
20260506141036 0 0.0 1.7 0.00 0.00 0.00
20260506140019 0 0.0 4.3 0.00 0.00 0.00
20260506135019 0 0.0 2.6 0.00 0.00 0.00
20260506134039 0 0.0 0.9 0.00 0.00 0.00
20260506133019 0 0.0 0.9 0.00 0.00 0.00
20260506132019 0 0.0 2.6 0.00 0.00 0.00
20260506131019 0 0.0 1.7 0.00 0.00 0.00
20260506130017 0 0.0 4.3 0.00 0.00 0.00
20260506125019 0 0.0 0.9 0.00 0.00 0.00
20260506124019 0 0.0 0.9 0.00 0.00 0.00
20260506123019 0 0.0 0.0 0.00 0.00 0.00
20260506122039 0 0.0 0.0 0.00 0.00 0.00
20260506121039 0 45 0.9 6.1 0.00 0.00 0.00
20260506120019 0 0.0 0.0 0.00 0.00 0.00
20260506115018 0 0.0 0.0 0.00 0.00 0.00
20260506114019 0 0.0 0.0 0.00 0.00 0.00
20260506113018 0 0.0 0.0 0.00 0.00 0.00
20260506112019 0 0.0 0.0 0.00 0.00 0.00
20260506111019 0 0.0 0.0 0.00 0.00 0.00
20260506110040 0 0.0 2.6 0.00 0.00 0.00
20260506105019 0 0.0 1.7 0.00 0.00 0.00
20260506104018 0 0.0 0.0 0.00 0.00 0.00
20260506103018 0 0.0 0.0 0.00 0.00 0.00
20260506102040 0 0.0 0.9 0.00 0.00 0.00
20260506101018 0 0.0 0.0 0.00 0.00 0.00
20260506100039 0 0.0 0.0 0.00 0.00 0.00
20260506095020 0 0.0 0.0 0.00 0.00 0.00
20260506094018 0 0.0 0.9 0.00 0.00 0.00
20260506093022 0 0.0 0.0 0.00 0.00 0.00
20260506092020 0 0.0 0.0 0.00 0.00 0.00
20260506091021 0 0.0 0.9 0.00 0.00 0.00
20260506090042 0 45 1.7 7.8 0.00 0.00 0.00
20260506085022 0 0.0 2.6 0.00 0.00 0.00
20260506084020 0 0.0 2.6 0.00 0.00 0.00
20260506083020 0 0.0 4.3 0.00 0.00 0.00
20260506082041 0 0.0 2.6 0.00 0.00 0.00
20260506081144 0 0.0 1.7 0.00 0.00 0.00
20260506073020 0 0.0 0.9 0.00 0.00 0.00
20260506072020 0 45 0.9 6.1 0.00 0.00 0.00
20260506071020 0 0.0 1.7 0.00 0.00 0.00
20260506062018 0 0.0 6.1 0.00 0.00 0.00
20260506061020 0 0.0 7.8 0.00 0.00 0.00
20260506051020 0 0.0 2.6 0.00 0.00 0.00
20260506050105 0 0.0 2.6 0.00 0.00 0.00
20260506045020 0 0.0 1.7 0.00 0.00 0.00
20260506044040 0 0.0 3.5 0.00 0.00 0.00
20260506043020 0 0.0 3.5 0.00 0.00 0.00
20260506042020 0 0.0 2.6 0.00 0.00 0.00
20260506041019 0 45 0.9 7.0 0.00 0.00 0.00
20260506040020 0 0.0 2.6 0.00 0.00 0.00
20260506035020 0 0.0 5.2 0.00 0.00 0.00
20260506034020 0 0.0 3.5 0.00 0.00 0.00
20260506033020 0 45 0.9 6.1 0.00 0.00 0.00
20260506032020 0 45 0.9 6.1 0.00 0.00 0.00
20260506031020 0 45 0.9 5.2 0.00 0.00 0.00
20260506030019 0 0.0 2.6 0.00 0.00 0.00